Change the Weather History Date:

Sunday, April 14, 2013

  Actual Average Record
Temperature  
Mean Temperature 14 °F 31 °F  
Max Temperature 28 °F 43 °F 54 °F (2008)
Min Temperature -1 °F 18 °F -8 °F (2014)
Degree Days  
Heating Degree Days 51 34  
Month to date heating degree days 519 504  
Since 1 July heating degree days 9782 9743  
Cooling Degree Days 0 0  
Month to date cooling degree days 0 0  
Year to date cooling degree days 0 0  
Moisture  
Dew Point 9 °F    
Average Humidity 75    
Maximum Humidity 91    
Minimum Humidity 59    
Precipitation  
Precipitation 0.13 in 0.07 in 0.52 in (2002)
Month to date precipitation 1.93 0.93  
Year to date precipitation 6.58 5.66  
Sea Level Pressure  
Sea Level Pressure 29.84 in    
Wind  
Wind Speed 3 mph (West)    
Max Wind Speed 18 mph    
Max Gust Speed 29 mph    
T = Trace of Precipitation, MM = Missing Value Source: NWS Daily Summary

Daily Weather History Graph

Daily Weather History Graph

Search for Another Location

Airport or City:

Trip Planner

Search our weather history database for the weather conditions in past years. The results will help you decide how hot, cold, wet, or windy it might be!

Date:

Astronomy

Apr. 14, 2013 Rise Set
Actual Time 6:38 AM MDT 8:05 PM MDT
Civil Twilight 6:08 AM MDT 8:36 PM MDT
Nautical Twilight 5:31 AM MDT 9:12 PM MDT
Astronomical Twilight 4:52 AM MDT 9:52 PM MDT
Moon 9:11 AM MDT (4/14) No Moon Set
Length of Visible Light 14h 27m
Length of Day
13h 26m
Waxing Crescent, 17% of the Moon is Illuminated
Apr 14
Waxing Crescent
Apr 18
First Quarter
Apr 25
Full
May 2
Last Quarter
May 9
New

Hourly Weather History & Observations

Time (MDT) Temp. Windchill Dew Point Humidity Pressure Visibility Wind Dir Wind Speed Gust Speed Precip Events Conditions
12:56 AM 10.0 °F - 5.0 °F 80% 29.72 in - Calm Calm - N/A   Unknown
1:56 AM 7.0 °F - 3.0 °F 84% 29.77 in - Calm Calm - N/A   Unknown
2:56 AM 12.0 °F 1.5 °F 6.1 °F 77% 29.74 in - WNW 6.9 mph - N/A   Unknown
3:56 AM 3.9 °F - -0.0 °F 84% 29.77 in - Calm Calm - N/A   Unknown
4:56 AM 8.1 °F 1.4 °F 3.9 °F 83% 29.76 in - WNW 3.5 mph - N/A   Unknown
5:56 AM -0.0 °F - -5.1 °F 79% 29.83 in - Calm Calm - N/A   Unknown
6:56 AM -0.0 °F - -5.1 °F 79% 29.85 in - Calm Calm - N/A   Unknown
7:56 AM 3.9 °F - 1.0 °F 88% 29.86 in - Calm Calm - N/A   Unknown
8:56 AM 6.1 °F - 3.0 °F 87% 29.87 in - Calm Calm - N/A   Unknown
9:56 AM 17.1 °F 11.7 °F 9.0 °F 71% 29.81 in - Variable 3.5 mph - N/A   Unknown
10:56 AM 21.9 °F 11.7 °F 12.0 °F 66% 29.81 in - West 9.2 mph - N/A   Unknown
11:56 AM 23.0 °F 12.4 °F 10.9 °F 60% 29.81 in - West 10.4 mph 17.3 mph N/A   Unknown
12:56 PM 24.1 °F 14.4 °F 14.0 °F 65% 29.84 in - West 9.2 mph - 0.02 in   Unknown
1:56 PM 23.0 °F 15.8 °F 16.0 °F 74% 29.86 in - Variable 5.8 mph 24.2 mph N/A   Unknown
2:56 PM 24.1 °F 12.5 °F 12.0 °F 60% 29.83 in - West 12.7 mph 23.0 mph N/A   Unknown
3:56 PM 21.9 °F 14.5 °F 15.1 °F 75% 29.89 in - West 5.8 mph - 0.02 in   Unknown
4:56 PM 23.0 °F - 14.0 °F 68% 29.86 in - Calm Calm - 0.02 in   Unknown
5:56 PM 21.0 °F 13.4 °F 16.0 °F 81% 29.93 in - Variable 5.8 mph - 0.02 in   Unknown
6:56 PM 19.0 °F 8.2 °F 14.0 °F 81% 29.95 in - WNW 9.2 mph 19.6 mph N/A   Unknown
7:56 PM 19.9 °F - 15.1 °F 81% 29.93 in - Calm Calm - 0.04 in   Unknown
8:56 PM 19.0 °F - 15.1 °F 85% 29.93 in - Calm Calm - 0.01 in   Unknown
9:56 PM 18.0 °F - 14.0 °F 84% 29.87 in - Calm Calm - N/A   Unknown
10:56 PM 16.0 °F - 12.9 °F 88% 29.85 in - Calm Calm - N/A   Unknown
11:56 PM 12.0 °F - 9.0 °F 88% 29.85 in - Calm Calm - N/A   Unknown